Location: Bastelaar
(51.0950°N, 3.8602°E)
Time: 05:44:04
(UTC+00:00)

SPOT 1/Viking Rocket - Pass Details

Date: 18 November 2025
Orbit: 773 x 789 km, 98.2° (Epoch: 16 December)

Event Time Altitude Azimuth Distance (km) Brightness Sun altitude
Rises 18:19:21 0° 179° (S) 3,258 6.8 -22.7°
Reaches altitude 10° 18:21:43 10° 184° (S) 2,336 6.1 -23.1°
Maximum altitude 18:26:45 51° 260° (W) 983 4.4 -23.8°
Drops below altitude 10° 18:31:50 10° 337° (NNW) 2,362 6.3 -24.6°
Sets 18:34:15 0° 343° (NNW) 3,297 7.0 -25.0°
